Time,TemperatureF,DewpointF,PressureIn,WindDirection,WindDirectionDegrees,WindSpeedMPH,WindSpeedGustMPH,Humidity,HourlyPrecipIn,Conditions,Clouds,dailyrainin,SoftwareType,DateUTC
2013-05-06 00:02:00,53.0,45.0,30.11,ESE,104,1.0,2.0,75,0.00,,,0.00,,2013-05-06 05:02:00,
2013-05-06 00:12:00,53.0,45.0,30.11,ESE,104,1.0,2.0,75,0.00,,,0.00,,2013-05-06 05:12:00,
2013-05-06 00:22:00,53.0,45.0,30.11,ESE,104,0.0,1.0,75,0.00,,,0.00,,2013-05-06 05:22:00,
2013-05-06 00:32:00,52.0,45.0,30.11,ESE,104,0.0,0.0,77,0.00,,,0.00,,2013-05-06 05:32:00,
2013-05-06 00:42:00,52.0,45.0,30.11,ESE,104,0.0,0.0,77,0.00,,,0.00,,2013-05-06 05:42:00,
2013-05-06 00:52:00,52.0,46.0,30.11,ESE,104,0.0,0.0,79,0.00,,,0.00,,2013-05-06 05:52:00,
2013-05-06 01:02:00,51.0,45.0,30.11,ESE,104,0.0,0.0,79,0.00,,,0.00,,2013-05-06 06:02:00,
2013-05-06 01:12:00,51.0,45.0,30.11,ESE,104,0.0,0.0,79,0.00,,,0.00,,2013-05-06 06:12:00,
2013-05-06 01:21:00,50.0,44.0,30.11,ESE,104,0.0,0.0,80,0.00,,,0.00,,2013-05-06 06:21:00,
2013-05-06 01:31:00,50.0,44.0,30.10,ESE,104,0.0,0.0,81,0.00,,,0.00,,2013-05-06 06:31:00,
2013-05-06 01:42:00,50.0,44.0,30.10,ESE,104,0.0,0.0,81,0.00,,,0.00,,2013-05-06 06:42:00,
2013-05-06 01:52:00,50.0,44.0,30.10,ESE,104,0.0,0.0,81,0.00,,,0.00,,2013-05-06 06:52:00,
2013-05-06 02:01:00,49.0,44.0,30.10,ESE,104,0.0,0.0,83,0.00,,,0.00,,2013-05-06 07:01:00,
2013-05-06 02:11:00,49.0,44.0,30.10,ESE,104,0.0,0.0,83,0.00,,,0.00,,2013-05-06 07:11:00,
2013-05-06 02:22:00,49.0,44.0,30.10,ESE,104,0.0,0.0,83,0.00,,,0.00,,2013-05-06 07:22:00,
2013-05-06 02:31:00,48.0,43.0,30.10,ESE,104,0.0,0.0,84,0.00,,,0.00,,2013-05-06 07:31:00,
2013-05-06 02:42:00,48.0,43.0,30.10,ESE,104,0.0,0.0,84,0.00,,,0.00,,2013-05-06 07:42:00,
2013-05-06 02:52:00,48.0,44.0,30.07,ESE,104,0.0,0.0,85,0.00,,,0.00,,2013-05-06 07:52:00,
2013-05-06 03:02:00,48.0,43.0,30.06,ESE,104,0.0,0.0,84,0.00,,,0.00,,2013-05-06 08:02:00,
2013-05-06 03:12:00,48.0,43.0,30.06,ESE,104,0.0,0.0,84,0.00,,,0.00,,2013-05-06 08:12:00,
2013-05-06 03:22:00,47.0,42.0,30.06,ESE,104,0.0,0.0,84,0.00,,,0.00,,2013-05-06 08:22:00,
2013-05-06 03:31:00,46.0,42.0,30.07,ESE,104,0.0,0.0,86,0.00,,,0.00,,2013-05-06 08:31:00,
2013-05-06 03:41:00,46.0,42.0,30.07,ESE,104,0.0,0.0,86,0.00,,,0.00,,2013-05-06 08:41:00,
2013-05-06 03:52:00,45.0,41.0,30.07,ESE,104,0.0,0.0,87,0.00,,,0.00,,2013-05-06 08:52:00,
2013-05-06 04:01:00,45.0,42.0,30.07,ESE,104,0.0,0.0,88,0.00,,,0.00,,2013-05-06 09:01:00,
2013-05-06 04:11:00,45.0,42.0,30.07,ESE,104,0.0,0.0,88,0.00,,,0.00,,2013-05-06 09:11:00,
2013-05-06 04:22:00,45.0,42.0,30.07,ESE,104,0.0,0.0,89,0.00,,,0.00,,2013-05-06 09:22:00,
2013-05-06 04:32:00,45.0,42.0,30.07,ESE,104,0.0,0.0,89,0.00,,,0.00,,2013-05-06 09:32:00,
2013-05-06 04:42:00,45.0,42.0,30.07,ESE,104,0.0,0.0,89,0.00,,,0.00,,2013-05-06 09:42:00,
2013-05-06 04:53:00,45.0,42.0,30.08,ESE,104,0.0,0.0,89,0.00,,,0.00,,2013-05-06 09:53:00,
2013-05-06 05:02:00,44.0,41.0,30.08,ESE,104,0.0,0.0,89,0.00,,,0.00,,2013-05-06 10:02:00,
2013-05-06 05:12:00,44.0,41.0,30.08,ESE,104,0.0,0.0,89,0.00,,,0.00,,2013-05-06 10:12:00,
2013-05-06 05:22:00,44.0,41.0,30.08,ESE,104,0.0,0.0,89,0.00,,,0.00,,2013-05-06 10:22:00,
2013-05-06 05:33:00,44.0,41.0,30.09,ESE,104,0.0,0.0,89,0.00,,,0.00,,2013-05-06 10:33:00,
2013-05-06 05:42:00,44.0,41.0,30.09,ESE,104,0.0,0.0,89,0.00,,,0.00,,2013-05-06 10:42:00,
2013-05-06 05:52:00,45.0,42.0,30.09,ESE,104,0.0,0.0,89,0.00,,,0.00,,2013-05-06 10:52:00,
2013-05-06 06:02:00,45.0,42.0,30.09,ESE,104,0.0,0.0,89,0.00,,,0.00,,2013-05-06 11:02:00,
2013-05-06 06:12:00,45.0,42.0,30.09,ESE,104,0.0,0.0,89,0.00,,,0.00,,2013-05-06 11:12:00,
2013-05-06 06:22:00,45.0,42.0,30.10,ESE,104,0.0,0.0,88,0.00,,,0.00,,2013-05-06 11:22:00,
2013-05-06 06:31:00,46.0,43.0,30.10,ESE,104,0.0,0.0,88,0.00,,,0.00,,2013-05-06 11:31:00,
2013-05-06 06:42:00,46.0,43.0,30.10,ESE,104,0.0,0.0,88,0.00,,,0.00,,2013-05-06 11:42:00,
2013-05-06 06:52:00,46.0,42.0,30.10,ESE,104,0.0,0.0,87,0.00,,,0.00,,2013-05-06 11:52:00,
2013-05-06 07:01:00,46.0,42.0,30.10,ESE,104,0.0,0.0,87,0.00,,,0.00,,2013-05-06 12:01:00,
2013-05-06 07:12:00,46.0,42.0,30.10,ESE,104,0.0,0.0,87,0.00,,,0.00,,2013-05-06 12:12:00,
2013-05-06 07:21:00,47.0,43.0,30.11,ESE,104,0.0,0.0,86,0.00,,,0.00,,2013-05-06 12:21:00,
2013-05-06 07:32:00,48.0,44.0,30.11,ESE,104,0.0,0.0,85,0.00,,,0.00,,2013-05-06 12:32:00,
2013-05-06 07:42:00,48.0,44.0,30.11,ESE,104,0.0,0.0,85,0.00,,,0.00,,2013-05-06 12:42:00,
2013-05-06 07:52:00,51.0,44.0,30.11,NNW,342,4.0,7.0,76,0.00,,,0.00,,2013-05-06 12:52:00,
2013-05-06 08:01:00,52.0,44.0,30.12,NNW,344,2.0,6.0,75,0.00,,,0.00,,2013-05-06 13:01:00,
2013-05-06 08:11:00,52.0,44.0,30.12,NNW,344,2.0,6.0,75,0.00,,,0.00,,2013-05-06 13:11:00,
2013-05-06 08:21:00,53.0,45.0,30.12,North,5,3.0,7.0,73,0.00,,,0.00,,2013-05-06 13:21:00,
2013-05-06 08:32:00,54.0,45.0,30.12,North,351,2.0,6.0,72,0.00,,,0.00,,2013-05-06 13:32:00,
2013-05-06 08:42:00,54.0,45.0,30.12,North,351,2.0,6.0,72,0.00,,,0.00,,2013-05-06 13:42:00,
2013-05-06 08:52:00,55.0,45.0,30.12,NE,34,3.0,5.0,70,0.00,,,0.00,,2013-05-06 13:52:00,
2013-05-06 09:01:00,56.0,46.0,30.12,NNE,14,4.0,6.0,69,0.00,,,0.00,,2013-05-06 14:01:00,
2013-05-06 09:11:00,56.0,46.0,30.12,NNE,14,4.0,6.0,69,0.00,,,0.00,,2013-05-06 14:11:00,
2013-05-06 09:21:00,56.0,46.0,30.12,NNE,30,2.0,7.0,69,0.00,,,0.00,,2013-05-06 14:21:00,
2013-05-06 09:32:00,57.0,46.0,30.12,NNE,13,4.0,6.0,67,0.00,,,0.00,,2013-05-06 14:32:00,
2013-05-06 09:42:00,57.0,46.0,30.12,NNE,13,4.0,6.0,67,0.00,,,0.00,,2013-05-06 14:42:00,
2013-05-06 09:51:00,58.0,47.0,30.13,North,360,0.0,6.0,66,0.00,,,0.00,,2013-05-06 14:51:00,
2013-05-06 10:01:00,58.0,47.0,30.13,North,9,1.0,5.0,66,0.00,,,0.00,,2013-05-06 15:01:00,
2013-05-06 10:11:00,58.0,47.0,30.13,North,9,1.0,5.0,66,0.00,,,0.00,,2013-05-06 15:11:00,
2013-05-06 10:21:00,59.0,47.0,30.12,NNE,21,1.0,5.0,65,0.00,,,0.00,,2013-05-06 15:21:00,
2013-05-06 10:33:00,60.0,48.0,30.12,North,355,2.0,5.0,64,0.00,,,0.00,,2013-05-06 15:33:00,
2013-05-06 10:42:00,60.0,48.0,30.12,North,355,2.0,5.0,64,0.00,,,0.00,,2013-05-06 15:42:00,
2013-05-06 10:53:00,61.0,48.0,30.11,North,5,2.0,4.0,63,0.00,,,0.00,,2013-05-06 15:53:00,
2013-05-06 11:03:00,63.0,49.0,30.14,NNW,340,5.0,5.0,60,0.00,,,0.00,,2013-05-06 16:03:00,
2013-05-06 11:13:00,63.0,49.0,30.14,NNW,340,5.0,5.0,60,0.00,,,0.00,,2013-05-06 16:13:00,
2013-05-06 11:23:00,64.0,49.0,30.14,NNW,329,2.0,7.0,59,0.00,,,0.00,,2013-05-06 16:23:00,
2013-05-06 11:32:00,66.0,49.0,30.14,NNW,339,5.0,8.0,54,0.00,,,0.00,,2013-05-06 16:32:00,
2013-05-06 11:42:00,66.0,49.0,30.14,NNW,339,5.0,8.0,54,0.00,,,0.00,,2013-05-06 16:42:00,
2013-05-06 11:52:00,67.0,47.0,30.14,ENE,63,2.0,8.0,49,0.00,,,0.00,,2013-05-06 16:52:00,
2013-05-06 12:02:00,67.0,48.0,30.13,NE,47,2.0,8.0,50,0.00,,,0.00,,2013-05-06 17:02:00,
2013-05-06 12:12:00,67.0,48.0,30.13,NE,47,2.0,8.0,50,0.00,,,0.00,,2013-05-06 17:12:00,
2013-05-06 12:23:00,68.0,48.0,30.13,NE,38,3.0,9.0,49,0.00,,,0.00,,2013-05-06 17:23:00,
2013-05-06 12:31:00,68.0,48.0,30.12,North,5,2.0,9.0,48,0.00,,,0.00,,2013-05-06 17:31:00,
2013-05-06 12:42:00,68.0,48.0,30.12,North,5,2.0,9.0,48,0.00,,,0.00,,2013-05-06 17:42:00,
2013-05-06 12:52:00,69.0,49.0,30.12,ENE,65,4.0,9.0,49,0.00,,,0.00,,2013-05-06 17:52:00,
2013-05-06 13:01:00,69.0,50.0,30.11,NNE,32,1.0,8.0,50,0.00,,,0.00,,2013-05-06 18:01:00,
2013-05-06 13:12:00,69.0,50.0,30.11,NNE,32,1.0,8.0,50,0.00,,,0.00,,2013-05-06 18:12:00,
2013-05-06 13:21:00,70.0,49.0,30.11,North,11,2.0,6.0,48,0.00,,,0.00,,2013-05-06 18:21:00,
2013-05-06 13:31:00,70.0,48.0,30.11,NE,36,3.0,9.0,46,0.00,,,0.00,,2013-05-06 18:31:00,
2013-05-06 13:43:00,70.0,48.0,30.11,NE,36,3.0,9.0,46,0.00,,,0.00,,2013-05-06 18:43:00,
2013-05-06 13:52:00,71.0,49.0,30.11,NNE,12,4.0,5.0,46,0.00,,,0.00,,2013-05-06 18:52:00,
2013-05-06 14:01:00,71.0,48.0,30.11,NE,54,5.0,8.0,44,0.00,,,0.00,,2013-05-06 19:01:00,
2013-05-06 14:11:00,71.0,48.0,30.11,NE,54,5.0,8.0,44,0.00,,,0.00,,2013-05-06 19:11:00,
2013-05-06 14:22:00,71.0,47.0,30.10,NNE,30,2.0,9.0,43,0.00,,,0.00,,2013-05-06 19:22:00,
2013-05-06 14:32:00,72.0,46.0,30.10,NNE,33,1.0,10.0,40,0.00,,,0.00,,2013-05-06 19:32:00,
2013-05-06 14:41:00,72.0,46.0,30.10,NNE,33,1.0,10.0,40,0.00,,,0.00,,2013-05-06 19:41:00,
2013-05-06 14:52:00,72.0,46.0,30.10,SSE,154,1.0,5.0,39,0.00,,,0.00,,2013-05-06 19:52:00,
2013-05-06 15:02:00,72.0,44.0,30.10,SE,130,0.0,4.0,36,0.00,,,0.00,,2013-05-06 20:02:00,
2013-05-06 15:11:00,72.0,44.0,30.10,SE,130,0.0,4.0,36,0.00,,,0.00,,2013-05-06 20:11:00,
2013-05-06 15:21:00,72.0,41.0,30.09,ENE,78,2.0,6.0,33,0.00,,,0.00,,2013-05-06 20:21:00,
2013-05-06 15:32:00,73.0,44.0,30.08,East,101,1.0,6.0,35,0.00,,,0.00,,2013-05-06 20:32:00,
2013-05-06 15:42:00,73.0,44.0,30.08,East,101,1.0,6.0,35,0.00,,,0.00,,2013-05-06 20:42:00,
2013-05-06 15:52:00,74.0,41.0,30.08,North,360,3.0,6.0,31,0.00,,,0.00,,2013-05-06 20:52:00,
2013-05-06 16:01:00,74.0,42.0,30.07,SE,130,2.0,5.0,32,0.00,,,0.00,,2013-05-06 21:01:00,
2013-05-06 16:11:00,74.0,42.0,30.07,SE,130,2.0,5.0,32,0.00,,,0.00,,2013-05-06 21:11:00,
2013-05-06 16:21:00,74.0,41.0,30.07,SSE,150,4.0,7.0,31,0.00,,,0.00,,2013-05-06 21:21:00,
2013-05-06 16:32:00,74.0,41.0,30.06,ESE,121,3.0,7.0,31,0.00,,,0.00,,2013-05-06 21:32:00,
2013-05-06 16:43:00,74.0,41.0,30.06,ESE,121,3.0,7.0,31,0.00,,,0.00,,2013-05-06 21:43:00,
2013-05-06 16:53:00,73.0,43.0,30.06,NE,52,0.0,7.0,34,0.00,,,0.00,,2013-05-06 21:53:00,
2013-05-06 17:03:00,73.0,43.0,30.06,East,81,1.0,7.0,34,0.00,,,0.00,,2013-05-06 22:03:00,
2013-05-06 17:12:00,73.0,43.0,30.06,East,81,1.0,7.0,34,0.00,,,0.00,,2013-05-06 22:12:00,
2013-05-06 17:22:00,72.0,40.0,30.06,NNE,22,2.0,8.0,31,0.00,,,0.00,,2013-05-06 22:22:00,
2013-05-06 17:33:00,73.0,41.0,30.06,NE,44,2.0,6.0,32,0.00,,,0.00,,2013-05-06 22:33:00,
2013-05-06 17:45:00,73.0,41.0,30.06,NE,44,2.0,6.0,32,0.00,,,0.00,,2013-05-06 22:45:00,
2013-05-06 17:52:00,73.0,41.0,30.06,ENE,63,4.0,6.0,31,0.00,,,0.00,,2013-05-06 22:52:00,
2013-05-06 18:02:00,73.0,41.0,30.06,NNW,331,2.0,5.0,32,0.00,,,0.00,,2013-05-06 23:02:00,
2013-05-06 18:12:00,73.0,41.0,30.06,NNW,331,2.0,5.0,32,0.00,,,0.00,,2013-05-06 23:12:00,
2013-05-06 18:22:00,73.0,40.0,30.06,NNE,32,3.0,8.0,30,0.00,,,0.00,,2013-05-06 23:22:00,
2013-05-06 18:31:00,72.0,40.0,30.07,North,360,3.0,6.0,31,0.00,,,0.00,,2013-05-06 23:31:00,
2013-05-06 18:41:00,72.0,40.0,30.07,North,360,3.0,6.0,31,0.00,,,0.00,,2013-05-06 23:41:00,
2013-05-06 18:52:00,72.0,41.0,30.06,North,360,1.0,4.0,32,0.00,,,0.00,,2013-05-06 23:52:00,
2013-05-06 19:01:00,72.0,43.0,30.06,North,360,0.0,3.0,35,0.00,,,0.00,,2013-05-07 00:01:00,
2013-05-06 19:11:00,72.0,43.0,30.06,North,360,0.0,3.0,35,0.00,,,0.00,,2013-05-07 00:11:00,
2013-05-06 19:21:00,71.0,40.0,30.06,North,360,0.0,2.0,33,0.00,,,0.00,,2013-05-07 00:21:00,
2013-05-06 19:31:00,71.0,43.0,30.07,North,360,0.0,0.0,36,0.00,,,0.00,,2013-05-07 00:31:00,
2013-05-06 19:41:00,71.0,43.0,30.07,North,360,0.0,0.0,36,0.00,,,0.00,,2013-05-07 00:41:00,
2013-05-06 19:51:00,70.0,42.0,30.07,North,360,0.0,0.0,36,0.00,,,0.00,,2013-05-07 00:51:00,
2013-05-06 20:01:00,70.0,45.0,30.07,North,360,0.0,0.0,41,0.00,,,0.00,,2013-05-07 01:01:00,
2013-05-06 20:11:00,70.0,45.0,30.07,North,360,0.0,0.0,41,0.00,,,0.00,,2013-05-07 01:11:00,
2013-05-06 20:21:00,68.0,46.0,30.07,North,360,0.0,0.0,45,0.00,,,0.00,,2013-05-07 01:21:00,
2013-05-06 20:32:00,66.0,48.0,30.07,North,360,0.0,0.0,52,0.00,,,0.00,,2013-05-07 01:32:00,
2013-05-06 20:42:00,66.0,48.0,30.07,North,360,0.0,0.0,52,0.00,,,0.00,,2013-05-07 01:42:00,
2013-05-06 20:53:00,64.0,47.0,30.08,North,360,0.0,0.0,53,0.00,,,0.00,,2013-05-07 01:53:00,
2013-05-06 21:02:00,63.0,48.0,30.08,North,360,0.0,0.0,57,0.00,,,0.00,,2013-05-07 02:02:00,
2013-05-06 21:11:00,63.0,48.0,30.08,North,360,0.0,0.0,57,0.00,,,0.00,,2013-05-07 02:11:00,
2013-05-06 21:21:00,62.0,47.0,30.08,North,360,0.0,0.0,57,0.00,,,0.00,,2013-05-07 02:21:00,
2013-05-06 21:31:00,61.0,46.0,30.08,North,360,0.0,0.0,58,0.00,,,0.00,,2013-05-07 02:31:00,
2013-05-06 21:41:00,61.0,46.0,30.08,North,360,0.0,0.0,58,0.00,,,0.00,,2013-05-07 02:41:00,
2013-05-06 21:51:00,60.0,47.0,30.09,North,360,0.0,0.0,61,0.00,,,0.00,,2013-05-07 02:51:00,
2013-05-06 22:01:00,59.0,45.0,30.09,North,360,0.0,0.0,60,0.00,,,0.00,,2013-05-07 03:01:00,
2013-05-06 22:11:00,59.0,45.0,30.09,North,360,0.0,0.0,60,0.00,,,0.00,,2013-05-07 03:11:00,
2013-05-06 22:22:00,59.0,45.0,30.09,North,360,0.0,0.0,60,0.00,,,0.00,,2013-05-07 03:22:00,
2013-05-06 22:32:00,59.0,45.0,30.09,North,360,0.0,0.0,60,0.00,,,0.00,,2013-05-07 03:32:00,
2013-05-06 22:42:00,59.0,45.0,30.09,North,360,0.0,0.0,60,0.00,,,0.00,,2013-05-07 03:42:00,
2013-05-06 22:53:00,58.0,44.0,30.09,North,360,0.0,0.0,60,0.00,,,0.00,,2013-05-07 03:53:00,
2013-05-06 23:02:00,58.0,45.0,30.09,North,360,0.0,0.0,61,0.00,,,0.00,,2013-05-07 04:02:00,
2013-05-06 23:12:00,58.0,45.0,30.09,North,360,0.0,0.0,61,0.00,,,0.00,,2013-05-07 04:12:00,
2013-05-06 23:23:00,58.0,45.0,30.09,North,360,0.0,1.0,63,0.00,,,0.00,,2013-05-07 04:23:00,
2013-05-06 23:33:00,57.0,47.0,30.09,North,360,0.0,1.0,68,0.00,,,0.00,,2013-05-07 04:33:00,
2013-05-06 23:42:00,57.0,47.0,30.09,North,360,0.0,1.0,68,0.00,,,0.00,,2013-05-07 04:42:00,
2013-05-06 23:53:00,56.0,46.0,30.09,North,360,0.0,0.0,68,0.00,,,0.00,,2013-05-07 04:53:00,